Change the Weather History Date:

Thursday, December 19, 2013

  Actual Average Record
Temperature  
Mean Temperature 46 °F -  
Max Temperature 55 °F 37 °F 60 °F (1997)
Min Temperature 37 °F 23 °F -2 °F (1996)
Degree Days  
Heating Degree Days 19    
Moisture  
Dew Point 42 °F    
Average Humidity 80    
Maximum Humidity 93    
Minimum Humidity 70    
Precipitation  
Precipitation 0.00 in - - ()
Sea Level Pressure  
Sea Level Pressure 29.96 in    
Wind  
Wind Speed 12 mph (South)    
Max Wind Speed 22 mph    
Max Gust Speed 28 mph    
Visibility 10 miles    
Events      
Averages and records for this station are not official NWS values.
T = Trace of Precipitation, MM = Missing Value Source: NWS Daily Summary

Daily Weather History Graph

Daily Weather History Graph

Search for Another Location

Airport or City:

Trip Planner

Search our weather history database for the weather conditions in past years. The results will help you decide how hot, cold, wet, or windy it might be!

Date:

Astronomy

Dec. 19, 2013 Rise Set
Actual Time 7:07 AM CST 4:37 PM CST
Civil Twilight 6:38 AM CST 5:07 PM CST
Nautical Twilight 6:04 AM CST 5:40 PM CST
Astronomical Twilight 5:32 AM CST 6:12 PM CST
Moon 7:01 PM CST (12/19) 8:27 AM CST (12/19)
Length of Visible Light 10h 29m
Length of Day
9h 29m
Waning Gibbous, 95% of the Moon is Illuminated
Dec 19
Waning Gibbous
Dec 25
Last Quarter
Jan 1
New
Jan 7
First Quarter
Jan 15
Full

Hourly Weather History & Observations

Time (CST) Temp. Windchill Dew Point Humidity Pressure Visibility Wind Dir Wind Speed Gust Speed Precip Events Conditions
12:15 AM 39.2 °F 32.0 °F 30.2 °F 70% 30.01 in 10.0 mi SSW 11.5 mph - N/A   Clear
12:35 AM 39.2 °F 32.5 °F 32.0 °F 75% 30.01 in 10.0 mi SSW 10.4 mph - N/A   Clear
12:55 AM 39.2 °F 31.6 °F 32.0 °F 75% 30.01 in 10.0 mi SSW 12.7 mph - N/A   Clear
1:15 AM 41.0 °F 33.5 °F 33.8 °F 76% 30.01 in 10.0 mi SSW 13.8 mph - N/A   Clear
1:35 AM 41.0 °F 33.1 °F 33.8 °F 76% 30.01 in 10.0 mi SSW 15.0 mph - N/A   Clear
1:55 AM 41.0 °F 33.5 °F 33.8 °F 76% 30.01 in 10.0 mi SSW 13.8 mph - N/A   Clear
2:15 AM 41.0 °F 33.9 °F 35.6 °F 81% 30.02 in 10.0 mi SSW 12.7 mph - N/A   Clear
2:35 AM - - - N/A% - - North - - N/A   Unknown
2:55 AM - - - N/A% - - North - - N/A   Unknown
3:15 AM - - - N/A% - - North - - N/A   Unknown
3:35 AM - - - N/A% - - North - - N/A   Unknown
3:55 AM - - - N/A% - - North - - N/A   Unknown
4:15 AM - - - N/A% - - North - - N/A   Unknown
4:35 AM 39.2 °F 33.0 °F 35.6 °F 87% 30.00 in 10.0 mi South 9.2 mph - N/A   Unknown
4:55 AM 37.4 °F 31.4 °F 33.8 °F 87% 30.00 in 10.0 mi South 8.1 mph - N/A   Clear
5:15 AM 37.4 °F 31.4 °F 33.8 °F 87% 30.00 in 10.0 mi South 8.1 mph - N/A   Clear
5:35 AM 37.4 °F 30.8 °F 33.8 °F 87% 30.00 in 10.0 mi South 9.2 mph - N/A   Clear
5:55 AM 37.4 °F 30.8 °F 33.8 °F 87% 30.00 in 10.0 mi South 9.2 mph - N/A   Clear
6:15 AM 37.4 °F 30.8 °F 33.8 °F 87% 30.00 in 10.0 mi SSW 9.2 mph - N/A   Clear
6:35 AM 37.4 °F 29.8 °F 33.8 °F 87% 30.00 in 10.0 mi South 11.5 mph - N/A   Clear
6:55 AM 37.4 °F 30.8 °F 35.6 °F 93% 30.00 in 10.0 mi South 9.2 mph - N/A   Clear
7:15 AM 37.4 °F 30.3 °F 33.8 °F 87% 30.00 in 10.0 mi South 10.4 mph - N/A   Clear
7:35 AM 39.2 °F 33.0 °F 35.6 °F 87% 30.01 in 10.0 mi South 9.2 mph - N/A   Clear
7:55 AM 39.2 °F 33.0 °F 35.6 °F 87% 30.01 in 10.0 mi South 9.2 mph - N/A   Clear
8:15 AM 41.0 °F 34.3 °F 37.4 °F 87% 30.01 in 10.0 mi South 11.5 mph - N/A   Clear
8:35 AM 42.8 °F 36.2 °F 37.4 °F 81% 30.02 in 10.0 mi South 12.7 mph - N/A   Clear
8:55 AM 42.8 °F 36.6 °F 37.4 °F 81% 30.02 in 10.0 mi SSW 11.5 mph - N/A   Clear
9:15 AM 44.6 °F 38.4 °F 37.4 °F 76% 30.02 in 10.0 mi South 12.7 mph - N/A   Clear
9:35 AM 46.4 °F 40.4 °F 39.2 °F 76% 30.02 in 10.0 mi South 13.8 mph - N/A   Clear
9:55 AM 46.4 °F 40.7 °F 39.2 °F 76% 30.02 in 10.0 mi South 12.7 mph - N/A   Clear
10:15 AM 46.4 °F 41.1 °F 39.2 °F 76% 30.02 in 10.0 mi SSW 11.5 mph 19.6 mph N/A   Clear
10:35 AM 48.2 °F - 39.2 °F 71% 30.02 in 10.0 mi SSW 15.0 mph - N/A   Clear
10:55 AM 48.2 °F - 41.0 °F 76% 30.01 in 10.0 mi South 16.1 mph - N/A   Clear
11:15 AM 48.2 °F - 42.8 °F 82% 30.00 in 10.0 mi South 15.0 mph 20.7 mph N/A   Clear
11:35 AM 50.0 °F - 42.8 °F 76% 30.00 in 10.0 mi South 17.3 mph - N/A   Clear
11:55 AM 51.8 °F - 42.8 °F 71% 29.99 in 10.0 mi South 16.1 mph - N/A   Clear
12:15 PM 51.8 °F - 44.6 °F 76% 29.97 in 10.0 mi South 17.3 mph - N/A   Clear
12:35 PM 53.6 °F - 44.6 °F 72% 29.97 in 10.0 mi SSW 18.4 mph 24.2 mph N/A   Clear
12:55 PM 53.6 °F - 46.4 °F 77% 29.96 in 10.0 mi South 16.1 mph 24.2 mph N/A   Clear
1:15 PM 55.4 °F - 46.4 °F 72% 29.96 in 10.0 mi SSW 18.4 mph 27.6 mph N/A   Scattered Clouds
1:35 PM 53.6 °F - 46.4 °F 77% 29.95 in 10.0 mi SSW 17.3 mph 25.3 mph N/A   Mostly Cloudy
1:55 PM 53.6 °F - 46.4 °F 77% 29.95 in 10.0 mi SSW 19.6 mph - N/A   Mostly Cloudy
2:15 PM 53.6 °F - 46.4 °F 77% 29.95 in 10.0 mi SSW 21.9 mph 27.6 mph N/A   Mostly Cloudy
2:35 PM 53.6 °F - 46.4 °F 77% 29.94 in 10.0 mi SSW 18.4 mph - N/A   Mostly Cloudy
2:55 PM 53.6 °F - 46.4 °F 77% 29.93 in 10.0 mi SSW 20.7 mph 26.5 mph N/A   Mostly Cloudy
3:15 PM 53.6 °F - 46.4 °F 77% 29.93 in 10.0 mi South 15.0 mph 18.4 mph N/A   Partly Cloudy
3:35 PM 53.6 °F - 46.4 °F 77% 29.92 in 10.0 mi South 12.7 mph - N/A   Clear
3:55 PM 53.6 °F - 46.4 °F 77% 29.91 in 10.0 mi South 13.8 mph 19.6 mph N/A   Clear
4:15 PM 53.6 °F - 46.4 °F 77% 29.91 in 10.0 mi South 12.7 mph - N/A   Clear
4:35 PM 51.8 °F - 46.4 °F 82% 29.92 in 10.0 mi South 10.4 mph - N/A   Scattered Clouds
4:55 PM 51.8 °F - 46.4 °F 82% 29.92 in 10.0 mi South 8.1 mph - N/A   Partly Cloudy
5:15 PM 51.8 °F - 46.4 °F 82% 29.91 in 10.0 mi South 9.2 mph - N/A   Mostly Cloudy
5:35 PM 51.8 °F - 46.4 °F 82% 29.91 in 10.0 mi South 9.2 mph - N/A   Mostly Cloudy
5:55 PM 51.8 °F - 46.4 °F 82% 29.90 in 10.0 mi South 10.4 mph - N/A   Mostly Cloudy
6:15 PM 51.8 °F - 46.4 °F 82% 29.90 in 10.0 mi South 13.8 mph - N/A   Mostly Cloudy
6:35 PM 53.6 °F - 46.4 °F 77% 29.90 in 10.0 mi South 12.7 mph - N/A   Mostly Cloudy
6:55 PM 53.6 °F - 46.4 °F 77% 29.89 in 10.0 mi South 10.4 mph - N/A   Overcast
7:15 PM 53.6 °F - 46.4 °F 77% 29.90 in 10.0 mi South 9.2 mph - N/A   Overcast
7:35 PM 53.6 °F - 46.4 °F 77% 29.90 in 10.0 mi South 12.7 mph - N/A   Overcast
7:55 PM 53.6 °F - 46.4 °F 77% 29.90 in 10.0 mi South 10.4 mph - N/A   Overcast
8:15 PM 53.6 °F - 46.4 °F 77% 29.90 in 10.0 mi South 10.4 mph - N/A   Overcast
8:35 PM 53.6 °F - 46.4 °F 77% 29.90 in 10.0 mi South 8.1 mph - N/A   Overcast
8:55 PM 53.6 °F - 46.4 °F 77% 29.90 in 10.0 mi South 9.2 mph - N/A   Overcast
9:15 PM 53.6 °F - 46.4 °F 77% 29.90 in 10.0 mi South 9.2 mph - N/A   Overcast
9:35 PM 53.6 °F - 48.2 °F 82% 29.89 in 10.0 mi South 9.2 mph - N/A   Overcast
9:55 PM 53.6 °F - 48.2 °F 82% 29.88 in 10.0 mi South 11.5 mph - N/A   Overcast
10:15 PM 53.6 °F - 48.2 °F 82% 29.88 in 10.0 mi South 10.4 mph - N/A   Overcast
10:35 PM 53.6 °F - 48.2 °F 82% 29.88 in 10.0 mi South 9.2 mph - N/A   Overcast
10:55 PM 53.6 °F - 48.2 °F 82% 29.88 in 10.0 mi SSW 9.2 mph - N/A   Overcast
11:15 PM 53.6 °F - 48.2 °F 82% 29.88 in 10.0 mi South 9.2 mph - N/A   Overcast
11:35 PM 53.6 °F - 48.2 °F 82% 29.88 in 10.0 mi South 11.5 mph - N/A   Overcast
11:55 PM 53.6 °F - 48.2 °F 82% 29.88 in 10.0 mi SSW 10.4 mph - N/A   Overcast